TimeCDT,TemperatureF,Dew PointF,Humidity,Sea Level PressureIn,VisibilityMPH,Wind Direction,Wind SpeedMPH,Gust SpeedMPH,PrecipitationIn,Events,Conditions,WindDirDegrees,DateUTC
12:54 AM,43.0,39.9,89,30.06,10.0,Calm,Calm,-,N/A,,Clear,0,2013-10-08 05:54:00
1:54 AM,43.0,39.0,86,30.07,10.0,Calm,Calm,-,N/A,,Clear,0,2013-10-08 06:54:00
2:54 AM,42.1,39.0,89,30.07,8.0,Calm,Calm,-,N/A,,Clear,0,2013-10-08 07:54:00
3:54 AM,41.0,39.0,93,30.08,10.0,Calm,Calm,-,N/A,,Clear,0,2013-10-08 08:54:00
4:54 AM,41.0,37.9,89,30.09,10.0,South,3.5,-,N/A,,Clear,180,2013-10-08 09:54:00
5:54 AM,43.0,39.0,86,30.10,10.0,SSE,3.5,-,N/A,,Clear,160,2013-10-08 10:54:00
6:54 AM,43.0,39.9,89,30.10,10.0,SSE,5.8,-,N/A,,Clear,160,2013-10-08 11:54:00
7:54 AM,44.1,41.0,89,30.11,10.0,South,5.8,-,N/A,,Clear,170,2013-10-08 12:54:00
8:54 AM,50.0,44.1,80,30.10,10.0,South,9.2,-,N/A,,Clear,180,2013-10-08 13:54:00
9:54 AM,55.9,45.0,67,30.09,10.0,South,12.7,-,N/A,,Clear,180,2013-10-08 14:54:00
10:54 AM,62.1,46.9,58,30.08,10.0,South,10.4,-,N/A,,Clear,170,2013-10-08 15:54:00
11:54 AM,68.0,46.0,45,30.07,10.0,South,10.4,-,N/A,,Clear,190,2013-10-08 16:54:00
12:54 PM,72.0,45.0,38,30.04,10.0,SSW,13.8,24.2,N/A,,Clear,200,2013-10-08 17:54:00
1:54 PM,73.9,43.0,33,30.03,10.0,SSW,15.0,28.8,N/A,,Clear,200,2013-10-08 18:54:00
2:54 PM,72.0,44.1,37,30.03,10.0,South,15.0,24.2,N/A,,Clear,180,2013-10-08 19:54:00
3:54 PM,72.0,43.0,35,30.01,10.0,South,17.3,23.0,N/A,,Clear,190,2013-10-08 20:54:00
4:54 PM,71.1,42.1,35,30.01,10.0,SSW,13.8,24.2,N/A,,Clear,200,2013-10-08 21:54:00
5:54 PM,68.0,46.0,45,30.01,10.0,South,11.5,-,N/A,,Clear,190,2013-10-08 22:54:00
6:54 PM,61.0,46.0,58,30.04,10.0,South,8.1,-,N/A,,Clear,170,2013-10-08 23:54:00
7:54 PM,59.0,46.0,62,30.04,10.0,South,6.9,-,N/A,,Clear,170,2013-10-09 00:54:00
8:54 PM,57.0,46.0,67,30.05,10.0,South,6.9,-,N/A,,Clear,170,2013-10-09 01:54:00
9:54 PM,57.9,46.0,65,30.05,10.0,South,6.9,-,N/A,,Clear,180,2013-10-09 02:54:00
10:54 PM,57.9,45.0,62,30.05,10.0,South,9.2,-,N/A,,Clear,180,2013-10-09 03:54:00
11:54 PM,55.9,45.0,67,30.06,10.0,South,9.2,-,N/A,,Clear,180,2013-10-09 04:54:00